[Date Prev][Date Next][Thread Prev][Thread Next] - [Date Index][Thread Index][Author Index]

2 Line ISS Keps 9-19



ISS
1 25544U 98067A   01262.20997080  .00046262  00000-0  57873-3 0  4859
2 25544  51.6412 335.6174 0008024 111.4343 281.8247 15.59300507161758


----
Via the sarex mailing list at AMSAT.ORG courtesy of AMSAT-NA.
To unsubscribe, send "unsubscribe sarex" to Majordomo@amsat.org



AMSAT Top AMSAT Home